Probability
8 7 6 5 3 2 1 0 0 0 0 0 0 0 0 0 0 0 0 0 0 0 0 0 0 0 0 0 0 0 0 0 0 0 0 0 0 0
11 10 9 8 7 4 2 1 0 0 0 0 0 0 0 0 0 0 0 0 0 0 0 0 0 0 0 0 0 0 0 0 0 0 0 0 0 0
14 13 11 11 11 7 4 2 1 1 0 0 0 0 0 0 0 0 0 0 0 0 0 0 0 0 0 0 0 0 0 0 0 0 0 0 0 0
16 15 13 12 12 9 6 3 2 1 1 0 0 0 0 0 0 1 1 1 0 0 0 0 0 0 0 0 0 0 0 0 0 0 0 0 0 0
17 16 15 14 12 10 7 5 3 2 2 1 1 0 1 1 2 1 2 3 2 0 0 0 0 0 0 0 0 0 0 0 0 0 0 0 0 0
16 16 16 14 11 9 7 6 4 3 3 3 2 1 2 4 4 3 3 4 4 1 0 0 1 1 1 0 0 0 0 0 0 0 0 0 0 0
16 15 15 13 9 7 5 5 5 4 4 4 3 2 3 6 7 6 5 5 4 3 2 2 2 2 2 1 0 0 0 0 0 0 0 0 0 0
17 16 14 11 7 5 3 2 2 3 5 4 3 3 4 6 7 6 5 4 4 5 5 3 2 2 2 1 0 0 0 0 0 0 0 0 0 0
19 18 14 11 9 8 5 2 2 2 3 3 2 2 3 4 4 3 3 2 3 5 5 4 3 2 2 1 1 0 0 0 0 0 0 0 0 0
19 18 16 13 11 9 8 7 7 4 2 1 1 1 1 1 1 1 1 1 2 3 4 3 3 3 2 2 1 0 0 0 0 0 0 0 0 0
19 18 16 13 8 6 8 11 11 6 2 0 0 0 0 0 0 0 0 0 1 2 3 3 3 3 3 2 1 0 0 0 0 0 0 0 0 0
19 18 13 8 4 3 6 10 10 6 3 1 0 0 0 0 0 0 0 0 0 2 4 3 2 1 1 1 0 0 0 1 1 0 0 0 0 0
17 16 11 4 1 1 3 6 6 4 2 1 0 0 0 0 0 1 1 1 1 2 3 3 2 1 1 0 0 1 1 2 2 1 1 0 0 0
12 11 8 2 0 0 1 3 2 1 1 0 0 0 0 1 2 2 3 2 2 2 2 3 3 2 2 1 1 1 2 3 3 2 1 0 0 0
7 6 3 1 0 0 0 0 0 0 0 0 0 0 1 2 3 3 3 2 2 2 1 2 2 2 2 1 1 1 1 2 2 2 1 0 0 0
5 4 3 2 1 1 0 0 0 0 0 0 0 0 0 1 1 1 1 1 1 1 0 1 1 1 1 0 0 0 0 1 1 0 0 0 0 0
3 6 7 6 3 1 0 0 1 0 0 0 0 0 0 0 0 0 0 0 0 0 0 0 0 0 0 0 0 0 0 0 0 0 0 0 0 0
2 5 8 7 4 2 0 0 0 0 0 0 0 0 0 0 0 0 0 0 0 0 0 0 0 0 0 0 0 0 0 0 0 0 0 0 0 0
1 3 5 5 4 2 1 0 0 0 0 0 0 0 0 0 0 0 0 0 0 0 0 0 0 0 0 0 0 0 0 0 0 0 0 0 0 0
0 1 2 3 3 3 2 1 1 1 1 1 1 1 0 0 0 0 0 0 0 0 0 0 0 0 0 0 0 0 0 0 0 0 0 0 0 0
0 0 1 3 4 4 5 4 4 3 3 3 2 2 1 0 0 0 0 0 0 0 0 0 0 0 0 0 0 0 0 0 0 0 0 0 0 0
0 0 1 3 4 5 5 5 5 5 5 4 3 2 1 0 0 0 0 0 0 0 0 0 0 0 0 0 0 0 0 0 0 0 0 0 0 0
0 0 1 3 4 4 4 4 5 6 6 5 3 1 0 0 0 0 0 0 0 0 0 0 0 0 0 0 0 0 0 0 0 0 0 0 0 0
Wind_Speed
7 7 6 4 5 4 4 4 5 5 3 4 4 3 3 3 3 5 5 8 10 9 9 9 9 9 8 9 9 9 9 9 9 9 10 11 11 12
5 5 5 6 4 5 4 4 5 6 5 2 2 2 1 3 4 5 5 7 10 10 9 9 9 10 10 9 9 10 10 10 11 11 11 11 12 12
7 7 7 6 5 5 5 5 5 5 5 4 2 1 2 5 3 5 6 6 7 12 11 10 10 10 10 10 10 11 11 11 11 12 12 12 12 13
8 7 7 6 6 6 4 5 5 4 6 6 4 4 5 5 5 6 6 6 6 9 11 10 10 11 11 11 11 11 11 11 11 11 12 12 12 13
8 8 8 7 7 6 6 6 5 5 5 6 6 3 4 5 5 7 7 5 8 6 11 12 12 11 11 11 12 12 12 11 11 11 11 12 12 13
8 8 8 8 8 7 6 6 5 5 5 6 6 5 5 5 5 6 6 6 7 7 6 6 9 12 13 13 12 12 11 11 11 11 11 12 12 12
8 8 8 7 5 5 5 6 6 6 6 6 6 6 5 4 5 5 6 5 6 6 6 7 7 8 9 13 14 12 11 11 11 11 11 12 12 12
9 9 8 9 9 8 7 6 6 7 7 6 6 6 6 6 5 6 6 6 6 4 5 7 6 6 6 7 5 8 9 10 10 11 11 12 12 12
9 8 8 8 9 10 10 10 9 9 8 8 9 8 7 5 6 7 6 7 7 6 5 8 7 7 7 5 6 7 8 9 10 10 11 11 12 12
10 10 9 8 8 8 8 9 9 9 9 9 8 7 7 5 5 7 7 7 8 7 6 8 7 7 6 6 6 9 9 9 10 10 10 11 12 12
9 9 8 8 6 6 8 9 8 7 7 7 6 5 4 4 5 6 6 7 8 6 4 6 7 7 7 8 5 9 10 10 11 11 11 11 12 12
7 7 7 6 5 7 8 8 8 6 5 5 6 6 7 7 7 7 7 7 7 7 3 4 7 7 8 6 5 5 6 8 11 12 12 12 11 9
5 5 4 8 6 7 7 6 4 4 4 5 4 5 5 5 5 5 6 6 7 7 4 4 6 7 7 8 7 7 7 7 7 8 10 11 11 10
4 3 3 9 7 6 5 3 3 3 4 4 4 4 4 4 4 4 4 5 6 8 7 6 6 7 8 10 9 8 7 7 7 8 8 7 10 13
2 3 4 8 7 5 5 4 4 4 3 4 4 4 4 3 4 4 4 5 6 7 7 6 7 8 8 9 10 9 9 8 7 7 8 9 9 9
4 5 7 6 4 2 3 4 3 2 2 3 3 3 3 2 3 3 3 4 5 6 6 7 8 8 9 10 10 10 9 8 8 8 9 9 9 9
5 4 3 3 3 3 2 1 1 2 2 2 2 2 2 2 3 3 3 4 5 6 5 5 6 7 9 9 10 9 9 9 8 8 9 10 10 9
4 3 2 2 2 1 1 1 1 1 1 1 2 2 3 3 3 3 4 4 5 6 6 6 6 6 6 6 7 9 9 9 9 9 9 11 11 9
4 3 2 2 1 1 0 0 1 1 1 1 2 2 3 3 3 4 4 5 5 6 6 6 6 6 8 9 5 4 8 9 9 9 9 10 11 11
3 3 2 2 1 1 1 1 1 1 1 2 2 2 3 3 4 4 4 5 6 6 6 6 5 6 8 9 10 9 7 8 9 9 10 10 10 10
3 3 3 2 2 2 2 2 2 2 2 2 2 3 3 4 4 4 5 5 6 6 7 6 5 5 7 7 8 8 7 6 7 8 10 10 10 10
4 4 3 3 3 3 3 2 2 2 3 3 3 4 4 4 5 6 6 6 6 6 7 6 6 6 6 7 9 10 10 9 7 8 9 8 8 9
4 4 3 4 4 3 3 3 3 3 3 4 4 4 4 4 5 5 6 6 6 7 7 7 6 6 7 8 9 9 11 10 8 7 5 6 10 12
Wind_Direction
222 213 234 236 239 245 252 263 273 274 252 200 224 202 223 237 163 224 233 184 198 210 219 225 230 234 239 241 242 245 248 251 255 257 260 264 266 267
233 236 237 242 232 236 243 250 262 277 283 271 223 227 237 258 185 234 243 176 200 210 219 227 231 235 239 241 242 245 247 250 253 255 257 258 260 262
219 220 224 244 241 235 230 238 246 257 267 270 247 189 219 263 231 241 236 233 213 198 213 225 231 235 239 241 243 245 248 250 253 256 257 259 260 262
217 221 223 216 221 245 240 240 245 257 263 269 265 234 222 239 241 250 249 240 252 184 199 219 229 234 239 242 244 245 248 251 253 256 259 260 261 263
218 219 219 217 219 224 234 241 240 234 244 260 256 252 243 236 240 245 251 255 262 206 195 211 221 231 239 241 242 244 247 250 253 256 258 260 261 263
216 218 219 218 218 220 222 232 243 248 238 251 257 247 240 230 242 251 250 231 251 263 245 230 217 221 232 235 236 238 242 247 252 255 256 258 259 260
215 216 217 217 225 231 241 228 228 239 245 246 252 252 247 240 246 256 264 267 251 255 265 259 237 235 224 224 226 231 238 246 252 255 257 259 259 260
214 215 213 206 210 217 241 252 254 247 255 261 258 258 263 261 263 269 273 272 270 253 263 272 272 268 262 257 200 201 227 245 253 257 259 260 261 260
215 214 223 211 203 217 212 218 231 238 245 260 268 272 270 264 271 267 266 279 285 294 279 276 273 268 267 263 180 205 230 246 254 258 260 262 264 264
219 217 222 222 216 222 226 226 229 223 222 232 254 267 274 285 271 268 279 271 264 257 257 271 278 278 279 278 205 207 228 245 254 259 263 267 269 270
220 218 219 219 199 199 227 233 235 235 219 222 242 260 292 295 285 272 265 266 270 268 238 257 279 287 282 275 250 198 218 235 245 254 260 265 270 273
210 211 208 219 183 185 221 231 235 241 246 214 214 229 241 240 230 248 264 268 275 278 277 269 280 290 287 279 286 277 254 240 239 246 251 256 261 272
211 209 193 171 180 190 218 231 238 258 252 246 238 237 238 243 235 228 246 267 276 278 295 288 285 288 288 293 293 290 291 291 281 268 251 243 240 250
212 203 149 146 161 179 201 215 213 233 244 247 248 249 251 252 252 252 244 253 268 279 294 298 287 289 289 287 290 293 292 290 287 287 289 269 244 241
191 123 123 144 157 165 188 196 198 212 229 240 250 260 267 273 272 264 258 252 256 260 265 266 269 276 277 281 286 291 294 292 286 287 289 288 288 283
172 142 140 140 154 158 161 177 195 220 249 259 275 280 281 276 270 275 279 279 272 268 253 249 252 263 271 277 282 285 288 290 295 296 296 292 289 285
154 157 159 156 160 165 169 175 197 202 226 256 271 277 280 280 285 289 281 277 277 281 279 264 253 251 259 271 280 283 289 291 294 301 296 291 289 288
130 141 142 144 151 157 165 174 180 200 256 269 281 290 292 291 288 284 276 275 280 286 291 297 296 287 275 264 256 280 288 294 299 299 293 292 293 296
116 124 120 114 110 96 81 36 12 21 342 311 302 293 289 286 284 285 284 287 289 293 297 301 303 302 299 298 296 264 297 301 300 298 297 296 296 299
108 109 107 102 88 65 50 37 25 15 2 331 317 310 307 304 301 298 298 304 302 301 300 299 303 309 305 303 303 299 278 290 299 300 302 301 296 292
90 86 82 78 71 62 50 33 22 14 3 336 338 330 318 309 308 307 307 307 296 297 300 305 324 302 291 291 290 294 301 280 274 286 300 302 305 306
77 75 70 66 62 55 46 31 16 9 357 341 340 329 324 322 320 318 315 309 306 306 308 310 313 302 297 295 298 302 305 306 285 249 251 267 295 304
64 62 60 56 51 40 30 18 8 360 351 342 338 333 331 327 319 315 314 313 315 315 313 313 314 310 304 300 300 302 306 311 312 307 289 242 237 251